YV1081 SVBM-SVCS

Flight info

Callsign YV1081
Flight time 0h 40m
Altitude 17500
Route YARITAGUA SUR LAGO TUY
Aircraft PAY2/L-GPS/L

Departure

Time 2026-04-27 20:15
Airport Jacinto Lara International Airport (SVBM)

Arrival

Time 2026-04-27 20:55
Airport Caracas Óscar Machado Zuloaga International Airport (SVCS)
Time Latitude Longitude Altitude Speed Heading
2026-04-27 19:59 10.04533 -69.35861 2046 ft 0 kts 173°
2026-04-27 20:02 10.04532 -69.35861 2046 ft 0 kts 173°
2026-04-27 20:04 10.04532 -69.35860 2046 ft 0 kts 173°
2026-04-27 20:07 10.04531 -69.35860 2046 ft 0 kts 173°
2026-04-27 20:09 10.04510 -69.35861 2046 ft 8 kts 184°
2026-04-27 20:09 10.04482 -69.35865 2046 ft 0 kts 192°
2026-04-27 20:09 10.04469 -69.35868 2046 ft 6 kts 202°
2026-04-27 20:10 10.04439 -69.35897 2046 ft 11 kts 242°
2026-04-27 20:10 10.04413 -69.35985 2046 ft 16 kts 259°
2026-04-27 20:10 10.04392 -69.36118 2046 ft 20 kts 261°
2026-04-27 20:10 10.04372 -69.36252 2046 ft 19 kts 258°
2026-04-27 20:11 10.04354 -69.36370 2046 ft 15 kts 260°
2026-04-27 20:11 10.04339 -69.36475 2046 ft 14 kts 260°
2026-04-27 20:11 10.04323 -69.36572 2046 ft 15 kts 260°
2026-04-27 20:11 10.04306 -69.36683 2046 ft 17 kts 266°
2026-04-27 20:12 10.04290 -69.36800 2046 ft 17 kts 259°
2026-04-27 20:12 10.04270 -69.36908 2046 ft 14 kts 259°
2026-04-27 20:12 10.04255 -69.37001 2046 ft 13 kts 260°
2026-04-27 20:12 10.04244 -69.37072 2046 ft 8 kts 253°
2026-04-27 20:13 10.04215 -69.37109 2046 ft 7 kts 212°
2026-04-27 20:13 10.04166 -69.37118 2046 ft 7 kts 171°
2026-04-27 20:13 10.04114 -69.37112 2046 ft 8 kts 173°
2026-04-27 20:13 10.04072 -69.37084 2046 ft 7 kts 118°
2026-04-27 20:14 10.04068 -69.37055 2046 ft 0 kts 82°
2026-04-27 20:14 10.04087 -69.36951 2046 ft 39 kts 78°
2026-04-27 20:14 10.04169 -69.36422 2047 ft 111 kts 83°
2026-04-27 20:14 10.04276 -69.35553 2321 ft 136 kts 83°
2026-04-27 20:15 10.04348 -69.34553 2765 ft 147 kts 86°
2026-04-27 20:15 10.04346 -69.33461 3138 ft 160 kts 88°
2026-04-27 20:15 10.04414 -69.32273 3345 ft 177 kts 84°
2026-04-27 20:15 10.04504 -69.30997 3482 ft 187 kts 84°
2026-04-27 20:16 10.04575 -69.29619 3619 ft 198 kts 85°
2026-04-27 20:16 10.04626 -69.28206 3749 ft 205 kts 86°
2026-04-27 20:16 10.04666 -69.26744 3878 ft 210 kts 86°
2026-04-27 20:16 10.04698 -69.25237 4007 ft 214 kts 87°
2026-04-27 20:17 10.04726 -69.23723 4134 ft 218 kts 87°
2026-04-27 20:17 10.04751 -69.22260 4253 ft 220 kts 87°
2026-04-27 20:17 10.04777 -69.20676 4382 ft 222 kts 87°
2026-04-27 20:17 10.04801 -69.19102 4507 ft 224 kts 87°
2026-04-27 20:18 10.04826 -69.17520 4633 ft 225 kts 87°
2026-04-27 20:18 10.04850 -69.15923 4759 ft 227 kts 87°
2026-04-27 20:18 10.04874 -69.14324 4884 ft 228 kts 87°
2026-04-27 20:18 10.04899 -69.12715 5008 ft 229 kts 87°
2026-04-27 20:19 10.04923 -69.11089 5134 ft 230 kts 87°
2026-04-27 20:19 10.04935 -69.09457 5255 ft 232 kts 89°
2026-04-27 20:19 10.04907 -69.07818 5457 ft 230 kts 90°
2026-04-27 20:19 10.04859 -69.06212 5704 ft 227 kts 91°
2026-04-27 20:20 10.04802 -69.04617 5952 ft 225 kts 91°
2026-04-27 20:20 10.04739 -69.02991 6206 ft 225 kts 92°
2026-04-27 20:20 10.04688 -69.01703 6408 ft 225 kts 92°
2026-04-27 20:20 10.04638 -69.00491 6599 ft 225 kts 92°
2026-04-27 20:21 10.04566 -68.98801 6866 ft 225 kts 92°
2026-04-27 20:21 10.04497 -68.97207 7117 ft 226 kts 92°
2026-04-27 20:21 10.04428 -68.95616 7366 ft 226 kts 92°
2026-04-27 20:21 10.04356 -68.93996 7620 ft 227 kts 92°
2026-04-27 20:22 10.04286 -68.92393 7871 ft 227 kts 93°
2026-04-27 20:22 10.04215 -68.90792 8121 ft 228 kts 93°
2026-04-27 20:22 10.04143 -68.89183 8371 ft 228 kts 93°
2026-04-27 20:22 10.04071 -68.87572 8622 ft 229 kts 93°
2026-04-27 20:23 10.03999 -68.85954 8872 ft 230 kts 93°
2026-04-27 20:23 10.03928 -68.84374 9117 ft 230 kts 93°
2026-04-27 20:23 10.03853 -68.82694 9376 ft 231 kts 93°
2026-04-27 20:23 10.03780 -68.81064 9627 ft 231 kts 93°
2026-04-27 20:24 10.03705 -68.79386 9884 ft 232 kts 93°
2026-04-27 20:24 10.03633 -68.77780 10130 ft 232 kts 93°
2026-04-27 20:24 10.03558 -68.76118 10384 ft 233 kts 93°
2026-04-27 20:24 10.03477 -68.74493 10670 ft 234 kts 93°
2026-04-27 20:25 10.03402 -68.72804 10878 ft 237 kts 92°
2026-04-27 20:25 10.03327 -68.71152 11132 ft 236 kts 93°
2026-04-27 20:25 10.03248 -68.69490 11383 ft 236 kts 93°
2026-04-27 20:25 10.03172 -68.67812 11638 ft 235 kts 93°
2026-04-27 20:26 10.03100 -68.66173 11886 ft 236 kts 94°
2026-04-27 20:26 10.03027 -68.64511 12136 ft 236 kts 94°
2026-04-27 20:26 10.02954 -68.62850 12386 ft 236 kts 94°
2026-04-27 20:26 10.02879 -68.61176 12638 ft 235 kts 94°
2026-04-27 20:27 10.02805 -68.59520 12887 ft 235 kts 94°
2026-04-27 20:27 10.02730 -68.57861 13137 ft 235 kts 94°
2026-04-27 20:27 10.02655 -68.56214 13385 ft 234 kts 94°
2026-04-27 20:27 10.02580 -68.54564 13635 ft 234 kts 94°
2026-04-27 20:28 10.02505 -68.52920 13884 ft 233 kts 94°
2026-04-27 20:28 10.02430 -68.51273 14134 ft 233 kts 94°
2026-04-27 20:28 10.02355 -68.49636 14383 ft 232 kts 94°
2026-04-27 20:28 10.02305 -68.48550 14549 ft 232 kts 94°
2026-04-27 20:29 10.02205 -68.46367 14883 ft 231 kts 94°
2026-04-27 20:29 10.02131 -68.44747 15131 ft 230 kts 94°
2026-04-27 20:29 10.02060 -68.43176 15377 ft 229 kts 96°
2026-04-27 20:29 10.01989 -68.41574 15627 ft 226 kts 96°
2026-04-27 20:30 10.01917 -68.39993 15878 ft 222 kts 97°
2026-04-27 20:30 10.01846 -68.38440 16124 ft 219 kts 97°
2026-04-27 20:30 10.01775 -68.36907 16371 ft 216 kts 97°
2026-04-27 20:30 10.01704 -68.35396 16617 ft 214 kts 97°
2026-04-27 20:31 10.01634 -68.33890 16865 ft 212 kts 97°
2026-04-27 20:31 10.01565 -68.32410 17110 ft 210 kts 97°
2026-04-27 20:31 10.01494 -68.30925 17278 ft 213 kts 97°
2026-04-27 20:31 10.01421 -68.29404 17359 ft 219 kts 96°
2026-04-27 20:32 10.01346 -68.27841 17376 ft 227 kts 96°
2026-04-27 20:32 10.01267 -68.26198 17377 ft 235 kts 96°
2026-04-27 20:32 10.01187 -68.24519 17376 ft 242 kts 96°
2026-04-27 20:32 10.01106 -68.22798 17374 ft 248 kts 96°
2026-04-27 20:33 10.01024 -68.21032 17372 ft 252 kts 96°
2026-04-27 20:33 10.00941 -68.19252 17368 ft 254 kts 96°
2026-04-27 20:33 10.00858 -68.17454 17363 ft 255 kts 96°
2026-04-27 20:33 10.00775 -68.15655 17360 ft 256 kts 96°
2026-04-27 20:34 10.00691 -68.13851 17360 ft 257 kts 96°
2026-04-27 20:34 10.00607 -68.12037 17359 ft 257 kts 96°
2026-04-27 20:34 10.00521 -68.10196 17359 ft 258 kts 96°
2026-04-27 20:34 10.00436 -68.08382 17359 ft 258 kts 96°
2026-04-27 20:35 10.00353 -68.06605 17357 ft 258 kts 96°
2026-04-27 20:35 10.00266 -68.04753 17357 ft 258 kts 96°
2026-04-27 20:35 10.00181 -68.02940 17356 ft 258 kts 96°
2026-04-27 20:35 10.00095 -68.01122 17357 ft 257 kts 96°
2026-04-27 20:36 10.00010 -67.99311 17357 ft 257 kts 96°
2026-04-27 20:36 9.99924 -67.97491 17357 ft 257 kts 96°
2026-04-27 20:36 9.99838 -67.95678 17360 ft 258 kts 96°
2026-04-27 20:36 9.99750 -67.93831 17364 ft 259 kts 96°
2026-04-27 20:37 9.99664 -67.92026 17365 ft 260 kts 96°
2026-04-27 20:37 9.99577 -67.90201 17365 ft 260 kts 96°
2026-04-27 20:37 9.99490 -67.88361 17364 ft 261 kts 96°
2026-04-27 20:37 9.99402 -67.86524 17364 ft 261 kts 96°
2026-04-27 20:38 9.99314 -67.84691 17364 ft 261 kts 96°
2026-04-27 20:38 9.99227 -67.82850 17361 ft 260 kts 96°
2026-04-27 20:38 9.99139 -67.81017 17360 ft 260 kts 96°
2026-04-27 20:38 9.99051 -67.79181 17360 ft 260 kts 96°
2026-04-27 20:39 9.98964 -67.77351 17361 ft 260 kts 96°
2026-04-27 20:39 9.98875 -67.75498 17363 ft 260 kts 96°
2026-04-27 20:39 9.98786 -67.73667 17365 ft 261 kts 96°
2026-04-27 20:39 9.98696 -67.71814 17374 ft 264 kts 95°
2026-04-27 20:40 9.98605 -67.69951 17384 ft 266 kts 95°
2026-04-27 20:40 9.98513 -67.68058 17387 ft 269 kts 95°
2026-04-27 20:40 9.98422 -67.66162 17387 ft 271 kts 95°
2026-04-27 20:40 9.98330 -67.64250 17387 ft 272 kts 95°
2026-04-27 20:41 9.98268 -67.62973 17387 ft 273 kts 95°
2026-04-27 20:41 9.98144 -67.60403 17387 ft 274 kts 95°
2026-04-27 20:41 9.98082 -67.59125 17380 ft 275 kts 95°
2026-04-27 20:41 9.98106 -67.57175 17271 ft 281 kts 84°
2026-04-27 20:42 9.98472 -67.55136 17046 ft 290 kts 77°
2026-04-27 20:42 9.99021 -67.53144 16801 ft 297 kts 72°
2026-04-27 20:42 9.99805 -67.51178 16552 ft 303 kts 64°
2026-04-27 20:42 10.00746 -67.49228 16302 ft 306 kts 61°
2026-04-27 20:43 10.01686 -67.47332 16055 ft 299 kts 61°
2026-04-27 20:43 10.02618 -67.45459 15800 ft 289 kts 61°
2026-04-27 20:43 10.03507 -67.43689 15550 ft 282 kts 60°
2026-04-27 20:43 10.04472 -67.41984 15299 ft 275 kts 56°
2026-04-27 20:44 10.05475 -67.40331 15045 ft 270 kts 55°
2026-04-27 20:44 10.06454 -67.38746 14797 ft 267 kts 55°
2026-04-27 20:44 10.07439 -67.37160 14545 ft 264 kts 55°
2026-04-27 20:44 10.08420 -67.35587 14294 ft 262 kts 55°
2026-04-27 20:45 10.09405 -67.34010 14041 ft 261 kts 55°
2026-04-27 20:45 10.10376 -67.32460 13791 ft 260 kts 55°
2026-04-27 20:45 10.11346 -67.30914 13541 ft 259 kts 55°
2026-04-27 20:45 10.12319 -67.29367 13280 ft 259 kts 55°
2026-04-27 20:46 10.13316 -67.27787 12823 ft 265 kts 55°
2026-04-27 20:46 10.14331 -67.26186 12318 ft 267 kts 54°
2026-04-27 20:46 10.15333 -67.24593 11818 ft 268 kts 54°
2026-04-27 20:46 10.16332 -67.22998 11318 ft 268 kts 55°
2026-04-27 20:47 10.17332 -67.21400 10818 ft 268 kts 55°
2026-04-27 20:47 10.18331 -67.19805 10317 ft 267 kts 55°
2026-04-27 20:47 10.19327 -67.18215 9817 ft 266 kts 55°
2026-04-27 20:47 10.20345 -67.16618 9309 ft 266 kts 56°
2026-04-27 20:48 10.21376 -67.15061 8808 ft 265 kts 55°
2026-04-27 20:48 10.22422 -67.13525 8308 ft 264 kts 55°
2026-04-27 20:48 10.23471 -67.12019 7808 ft 254 kts 55°
2026-04-27 20:48 10.24471 -67.10594 7306 ft 247 kts 55°
2026-04-27 20:49 10.25467 -67.09178 6806 ft 246 kts 55°
2026-04-27 20:49 10.26456 -67.07771 6308 ft 245 kts 54°
2026-04-27 20:49 10.27418 -67.06347 5806 ft 243 kts 57°
2026-04-27 20:49 10.28275 -67.04885 5466 ft 234 kts 62°
2026-04-27 20:50 10.28893 -67.03421 5396 ft 217 kts 69°
2026-04-27 20:50 10.29253 -67.01988 5389 ft 202 kts 77°
2026-04-27 20:50 10.29406 -67.00615 5391 ft 190 kts 85°
2026-04-27 20:50 10.29422 -66.99305 5392 ft 181 kts 89°
2026-04-27 20:51 10.29360 -66.98039 5393 ft 174 kts 92°
2026-04-27 20:51 10.29298 -66.97139 5336 ft 173 kts 92°
2026-04-27 20:51 10.29208 -66.95786 5153 ft 165 kts 91°
2026-04-27 20:51 10.29157 -66.94636 4973 ft 160 kts 89°
2026-04-27 20:52 10.29139 -66.93508 4792 ft 156 kts 87°
2026-04-27 20:52 10.29147 -66.92421 4615 ft 153 kts 86°
2026-04-27 20:52 10.29167 -66.91352 4438 ft 150 kts 86°
2026-04-27 20:52 10.29186 -66.90327 4280 ft 136 kts 86°
2026-04-27 20:53 10.29190 -66.89419 4008 ft 125 kts 87°
2026-04-27 20:53 10.29167 -66.88550 3711 ft 124 kts 89°
2026-04-27 20:53 10.29135 -66.87669 3437 ft 125 kts 89°
2026-04-27 20:53 10.29095 -66.86795 3174 ft 123 kts 92°
2026-04-27 20:54 10.28949 -66.85097 2690 ft 113 kts 94°
2026-04-27 20:54 10.28890 -66.84330 2539 ft 105 kts 92°
2026-04-27 20:54 10.28836 -66.83594 2379 ft 104 kts 92°
2026-04-27 20:55 10.28780 -66.82818 2230 ft 103 kts 93°
2026-04-27 20:55 10.28731 -66.82202 2151 ft 88 kts 94°
2026-04-27 20:55 10.28704 -66.81761 2150 ft 56 kts 95°
2026-04-27 20:55 10.28684 -66.81490 2150 ft 27 kts 94°
2026-04-27 20:56 10.28681 -66.81382 2150 ft 8 kts
2026-04-27 20:56 10.28718 -66.81411 2150 ft 7 kts 341°
2026-04-27 20:56 10.28733 -66.81452 2150 ft 7 kts 273°
2026-04-27 20:56 10.28739 -66.81510 2150 ft 9 kts 279°
2026-04-27 20:57 10.28743 -66.81569 2150 ft 9 kts 274°
2026-04-27 20:57 10.28748 -66.81633 2150 ft 10 kts 274°
2026-04-27 20:57 10.28753 -66.81704 2150 ft 11 kts 275°
2026-04-27 20:57 10.28758 -66.81782 2150 ft 11 kts 272°
2026-04-27 20:58 10.28764 -66.81862 2150 ft 12 kts 272°
2026-04-27 20:58 10.28769 -66.81944 2150 ft 11 kts 274°
2026-04-27 20:58 10.28774 -66.81996 2150 ft 11 kts 275°
2026-04-27 20:58 10.28779 -66.82089 2150 ft 10 kts 270°
2026-04-27 20:59 10.28810 -66.82130 2150 ft 8 kts
2026-04-27 20:59 10.28858 -66.82125 2150 ft 11 kts
2026-04-27 20:59 10.28903 -66.82105 2150 ft 6 kts 86°
2026-04-27 20:59 10.28890 -66.82083 2150 ft 2 kts 175°
2026-04-27 21:00 10.28887 -66.82083 2150 ft 0 kts 188°